Weather History for Kars, Turkey

Change the Weather History Date:

Saturday, October 5, 2013

  Actual Average Record
Temperature  
Mean Temperature 37 °F -  
Max Temperature 43 °F 54 °F - ()
Min Temperature 31 °F 31 °F - ()
Degree Days  
Heating Degree Days 28    
Moisture  
Dew Point 27 °F    
Average Humidity 69    
Maximum Humidity 100    
Minimum Humidity 34    
Precipitation  
Precipitation 0.00 in 0.05 in - ()
Sea Level Pressure  
Sea Level Pressure 30.05 in    
Wind  
Wind Speed 7 mph ()    
Max Wind Speed 14 mph    
Max Gust Speed -    
Visibility 6.2 miles    
Events Snow    
T = Trace of Precipitation, MM = Missing Value Source: Averaged Metar Reports

Daily Weather History Graph

Daily Weather History Graph

Search for Another Location

Airport:

Trip Planner

Search our weather history database for the weather conditions in past years. The results will help you decide how hot, cold, wet, or windy it might be!

Date:

Astronomy

Oct. 05, 2013 Rise Set
Actual Time 6:08 AM EEST 5:43 PM EEST
Civil Twilight 5:40 AM EEST 6:10 PM EEST
Nautical Twilight 5:09 AM EEST 6:42 PM EEST
Astronomical Twilight 4:37 AM EEST 7:13 PM EEST
Moon 6:23 AM EEST (10/5) 5:48 PM EEST (10/5)
Length of Visible Light 12h 29m
Length of Day
11h 35m
New Moon, 0% of the Moon is Illuminated
Oct 5
New Moon
Oct 12
First Quarter
Oct 19
Full
Oct 27
Last Quarter
Nov 3
New

Hourly Weather History & Observations

Time (EEST) Temp. Windchill Dew Point Humidity Pressure Visibility Wind Dir Wind Speed Gust Speed Precip Events Conditions
12:50 AM 32.0 °F 22.1 °F 32.0 °F 100% 30.01 in 6.2 mi North 13.8 mph - N/A Snow Light Snow
1:50 AM 32.0 °F 24.2 °F 32.0 °F 100% 30.04 in 6.2 mi North 9.2 mph - N/A   Mostly Cloudy
2:50 AM 33.8 °F 28.6 °F 30.2 °F 87% 30.04 in 6.2 mi NNW 5.8 mph - N/A   Mostly Cloudy
3:00 AM 33 °F - 31 °F 89%  in 6 mi NNW 5.8 mph - -   Partly Cloudy
3:50 AM 33.8 °F 28.6 °F 28.4 °F 81% 30.04 in 6.2 mi NNE 5.8 mph - N/A   Mostly Cloudy
4:50 AM 33.8 °F 28.6 °F 28.4 °F 81% 30.04 in 6.2 mi NNE 5.8 mph - N/A   Mostly Cloudy
5:50 AM 32.0 °F 26.4 °F 28.4 °F 87% 30.04 in 6.2 mi NNE 5.8 mph - N/A   Mostly Cloudy
6:50 AM 33.8 °F 28.6 °F 28.4 °F 81% 30.04 in 6.2 mi NNE 5.8 mph - N/A   Mostly Cloudy
7:50 AM 33.8 °F 28.6 °F 28.4 °F 81% 30.09 in 6.2 mi NNE 5.8 mph - N/A   Mostly Cloudy
8:50 AM 35.6 °F 28.0 °F 26.6 °F 70% 30.06 in 6.2 mi NNE 10.4 mph - N/A   Mostly Cloudy
9:00 AM 36 °F - 25 °F 52%  in 6 mi NNE 10.4 mph - -   Mostly Cloudy
9:50 AM 37.4 °F 31.4 °F 26.6 °F 65% 30.06 in 6.2 mi NNE 8.1 mph - N/A   Mostly Cloudy
10:50 AM 37.4 °F 32.1 °F 24.8 °F 60% 30.06 in 6.2 mi North 6.9 mph - N/A   Mostly Cloudy
11:50 AM 39.2 °F 34.2 °F 23.0 °F 52% 30.06 in 6.2 mi ENE 6.9 mph - N/A   Mostly Cloudy
12:50 PM 42.8 °F 38.0 °F 24.8 °F 49% 30.04 in 6.2 mi North 8.1 mph - N/A   Mostly Cloudy
1:50 PM 41.0 °F 35.8 °F 24.8 °F 53% 30.04 in 6.2 mi North 8.1 mph - N/A   Mostly Cloudy
2:50 PM 42.8 °F 38.6 °F 24.8 °F 49% 30.04 in 6.2 mi North 6.9 mph - N/A   Scattered Clouds
3:00 PM 43 °F - 24 °F 34%  in 6 mi North 6.9 mph - -   Mostly Cloudy
3:50 PM 41.0 °F 35.8 °F 24.8 °F 53% 30.04 in 6.2 mi North 8.1 mph - N/A   Mostly Cloudy
4:50 PM 41.0 °F 35.8 °F 26.6 °F 57% 30.04 in 6.2 mi North 8.1 mph - N/A   Scattered Clouds
5:50 PM 39.2 °F 35.9 °F 26.6 °F 61% 30.04 in 6.2 mi North 4.6 mph - N/A   Mostly Cloudy
6:50 PM 37.4 °F 33.8 °F 26.6 °F 65% 30.06 in 6.2 mi North 4.6 mph - N/A   Mostly Cloudy
7:50 PM 37.4 °F 30.8 °F 26.6 °F 65% 30.06 in 6.2 mi North 9.2 mph - N/A   Mostly Cloudy
8:50 PM 37.4 °F 31.4 °F 26.6 °F 65% 30.06 in 6.2 mi North 8.1 mph - N/A   Mostly Cloudy
9:00 PM 37 °F - 26 °F 52%  in 6 mi North 8.1 mph - -   Partly Cloudy
9:50 PM 33.8 °F 27.7 °F 26.6 °F 75% 30.06 in 6.2 mi East 6.9 mph - N/A   Mostly Cloudy
10:50 PM 33.8 °F 27.7 °F 28.4 °F 81% 30.06 in 6.2 mi East 6.9 mph - N/A   Mostly Cloudy
11:50 PM 33.8 °F 28.6 °F 28.4 °F 81% 30.04 in 6.2 mi East 5.8 mph - N/A   Mostly Cloudy